Time,TemperatureF,DewpointF,PressureIn,WindDirection,WindDirectionDegrees,WindSpeedMPH,WindSpeedGustMPH,Humidity,HourlyPrecipIn,Conditions,Clouds,dailyrainin,SoftwareType,DateUTC
2013-09-02 00:01:00,74.6,71.2,29.83,SW,215,3.2,3.2,89,0.00,,,0.02,VWS V14.01,2013-09-02 04:01:00,
2013-09-02 00:06:00,74.6,71.2,29.84,SW,230,0.0,3.2,89,0.00,,,0.00,VWS V14.01,2013-09-02 04:06:00,
2013-09-02 00:11:00,74.6,71.2,29.84,WSW,247,1.6,4.8,89,0.00,,,0.00,VWS V14.01,2013-09-02 04:11:00,
2013-09-02 00:16:00,74.7,71.2,29.84,WSW,253,3.2,6.4,89,0.00,,,0.00,VWS V14.01,2013-09-02 04:16:00,
2013-09-02 00:21:00,74.8,71.3,29.83,SSW,213,1.6,8.0,89,0.00,,,0.00,VWS V14.01,2013-09-02 04:21:00,
2013-09-02 00:26:00,74.7,71.2,29.83,SW,215,6.4,9.6,89,0.00,,,0.00,VWS V14.01,2013-09-02 04:26:00,
2013-09-02 00:31:00,74.7,71.2,29.83,SW,220,3.2,9.6,89,0.00,,,0.00,VWS V14.01,2013-09-02 04:31:00,
2013-09-02 00:36:00,74.7,71.2,29.83,SSW,200,1.6,1.6,89,0.00,,,0.00,VWS V14.01,2013-09-02 04:36:00,
2013-09-02 00:41:00,74.7,71.2,29.83,SW,222,0.0,6.4,89,0.00,,,0.00,VWS V14.01,2013-09-02 04:41:00,
2013-09-02 00:46:00,74.6,71.2,29.83,SW,218,1.6,4.8,89,0.00,,,0.00,VWS V14.01,2013-09-02 04:46:00,
2013-09-02 00:51:00,74.4,70.9,29.83,SW,218,3.2,4.8,89,0.00,,,0.00,VWS V14.01,2013-09-02 04:51:00,
2013-09-02 00:56:00,74.4,71.3,29.84,WSW,245,4.8,8.0,90,0.00,,,0.00,VWS V14.01,2013-09-02 04:56:00,
2013-09-02 01:01:00,74.3,71.2,29.84,WSW,241,3.2,11.2,90,0.00,,,0.00,VWS V14.01,2013-09-02 05:01:00,
2013-09-02 01:06:00,74.2,71.1,29.84,WSW,247,4.8,8.0,90,0.00,,,0.00,VWS V14.01,2013-09-02 05:06:00,
2013-09-02 01:11:00,74.1,71.0,29.85,WSW,257,4.8,11.2,90,0.00,,,0.00,VWS V14.01,2013-09-02 05:11:00,
2013-09-02 01:16:00,74.1,71.3,29.85,WSW,246,6.4,11.2,91,0.00,,,0.00,VWS V14.01,2013-09-02 05:16:00,
2013-09-02 01:21:00,74.2,71.4,29.85,SSW,206,6.4,9.6,91,0.00,,,0.00,VWS V14.01,2013-09-02 05:21:00,
2013-09-02 01:26:00,74.2,71.4,29.85,SW,232,6.4,9.6,91,0.00,,,0.00,VWS V14.01,2013-09-02 05:26:00,
2013-09-02 01:30:00,74.3,71.5,29.85,WSW,242,4.8,11.2,91,0.00,,,0.00,VWS V14.01,2013-09-02 05:30:00,
2013-09-02 01:35:00,74.3,71.5,29.85,SW,230,8.0,9.6,91,0.00,,,0.00,VWS V14.01,2013-09-02 05:35:00,
2013-09-02 01:40:00,74.3,71.5,29.85,SW,227,3.2,9.6,91,0.00,,,0.00,VWS V14.01,2013-09-02 05:40:00,
2013-09-02 01:45:00,74.3,71.5,29.85,WSW,242,6.4,6.4,91,0.00,,,0.00,VWS V14.01,2013-09-02 05:45:00,
2013-09-02 01:50:00,74.3,71.5,29.85,WSW,245,11.2,11.2,91,0.00,,,0.00,VWS V14.01,2013-09-02 05:50:00,
2013-09-02 01:55:00,74.4,71.6,29.85,SW,236,6.4,12.8,91,0.00,,,0.00,VWS V14.01,2013-09-02 05:55:00,
2013-09-02 02:00:00,74.5,71.7,29.85,SW,221,9.6,11.2,91,0.00,,,0.00,VWS V14.01,2013-09-02 06:00:00,
2013-09-02 02:05:00,74.5,71.7,29.85,WSW,241,4.8,6.4,91,0.00,,,0.00,VWS V14.01,2013-09-02 06:05:00,
2013-09-02 02:10:00,74.5,71.7,29.85,WSW,240,4.8,8.0,91,0.00,,,0.00,VWS V14.01,2013-09-02 06:10:00,
2013-09-02 02:15:00,74.5,71.7,29.85,WSW,239,8.0,14.4,91,0.00,,,0.00,VWS V14.01,2013-09-02 06:15:00,
2013-09-02 02:20:00,74.6,71.8,29.85,SW,236,4.8,14.4,91,0.00,,,0.00,VWS V14.01,2013-09-02 06:20:00,
2013-09-02 02:25:00,74.8,72.0,29.85,SW,229,8.0,12.8,91,0.00,,,0.00,VWS V14.01,2013-09-02 06:25:00,
2013-09-02 02:30:00,74.8,72.0,29.85,WSW,241,4.8,11.2,91,0.00,,,0.00,VWS V14.01,2013-09-02 06:30:00,
2013-09-02 02:35:00,74.8,72.0,29.85,SW,233,3.2,8.0,91,0.00,,,0.00,VWS V14.01,2013-09-02 06:35:00,
2013-09-02 02:40:00,74.8,72.0,29.85,SW,225,8.0,9.6,91,0.00,,,0.00,VWS V14.01,2013-09-02 06:40:00,
2013-09-02 02:45:00,74.9,72.1,29.86,SW,228,3.2,6.4,91,0.00,,,0.00,VWS V14.01,2013-09-02 06:45:00,
2013-09-02 02:50:00,74.9,72.1,29.85,WSW,238,6.4,11.2,91,0.00,,,0.00,VWS V14.01,2013-09-02 06:50:00,
2013-09-02 02:55:00,74.9,72.1,29.86,WSW,239,4.8,8.0,91,0.00,,,0.00,VWS V14.01,2013-09-02 06:55:00,
2013-09-02 03:00:00,74.9,72.1,29.86,SSW,204,8.0,9.6,91,0.00,,,0.00,VWS V14.01,2013-09-02 07:00:00,
2013-09-02 03:05:00,75.0,71.9,29.86,WSW,249,4.8,8.0,90,0.00,,,0.00,VWS V14.01,2013-09-02 07:05:00,
2013-09-02 03:10:00,74.9,71.8,29.86,SW,231,6.4,11.2,90,0.00,,,0.00,VWS V14.01,2013-09-02 07:10:00,
2013-09-02 03:15:00,74.9,71.8,29.86,WSW,243,6.4,12.8,90,0.00,,,0.00,VWS V14.01,2013-09-02 07:15:00,
2013-09-02 03:20:00,74.8,72.0,29.86,SW,222,1.6,6.4,91,0.00,,,0.00,VWS V14.01,2013-09-02 07:20:00,
2013-09-02 03:25:00,74.7,71.9,29.86,SW,225,9.6,11.2,91,0.00,,,0.00,VWS V14.01,2013-09-02 07:25:00,
2013-09-02 03:30:00,74.6,71.8,29.85,WSW,250,3.2,9.6,91,0.00,,,0.00,VWS V14.01,2013-09-02 07:30:00,
2013-09-02 03:35:00,74.5,71.7,29.86,WSW,243,6.4,8.0,91,0.00,,,0.00,VWS V14.01,2013-09-02 07:35:00,
2013-09-02 03:40:00,74.5,71.7,29.86,SW,221,6.4,8.0,91,0.00,,,0.00,VWS V14.01,2013-09-02 07:40:00,
2013-09-02 03:45:00,74.5,71.7,29.86,SW,236,3.2,9.6,91,0.00,,,0.00,VWS V14.01,2013-09-02 07:45:00,
2013-09-02 03:50:00,74.4,71.6,29.85,WSW,252,4.8,9.6,91,0.00,,,0.00,VWS V14.01,2013-09-02 07:50:00,
2013-09-02 03:55:00,74.3,71.5,29.85,SSW,210,8.0,8.0,91,0.00,,,0.00,VWS V14.01,2013-09-02 07:55:00,
2013-09-02 04:00:00,74.1,71.6,29.85,SSW,210,4.8,6.4,92,0.00,,,0.00,VWS V14.01,2013-09-02 08:00:00,
2013-09-02 04:05:00,73.9,71.4,29.85,SW,218,6.4,11.2,92,0.00,,,0.00,VWS V14.01,2013-09-02 08:05:00,
2013-09-02 04:10:00,73.7,71.2,29.85,WSW,256,3.2,6.4,92,0.00,,,0.00,VWS V14.01,2013-09-02 08:10:00,
2013-09-02 04:15:00,73.6,71.1,29.85,SW,222,3.2,6.4,92,0.00,,,0.00,VWS V14.01,2013-09-02 08:15:00,
2013-09-02 04:20:00,73.5,71.4,29.85,SW,227,3.2,6.4,93,0.00,,,0.00,VWS V14.01,2013-09-02 08:20:00,
2013-09-02 04:25:00,73.3,71.2,29.85,SSW,210,3.2,4.8,93,0.00,,,0.00,VWS V14.01,2013-09-02 08:25:00,
2013-09-02 04:30:00,73.1,71.0,29.85,West,266,1.6,4.8,93,0.00,,,0.00,VWS V14.01,2013-09-02 08:30:00,
2013-09-02 04:35:00,72.9,70.8,29.85,SW,225,1.6,3.2,93,0.00,,,0.00,VWS V14.01,2013-09-02 08:35:00,
2013-09-02 04:40:00,72.8,70.7,29.85,SW,229,0.0,0.0,93,0.00,,,0.00,VWS V14.01,2013-09-02 08:40:00,
2013-09-02 04:45:00,72.6,70.5,29.85,SSW,196,0.0,1.6,93,0.00,,,0.00,VWS V14.01,2013-09-02 08:45:00,
2013-09-02 04:50:00,72.5,70.7,29.85,SW,222,0.0,3.2,94,0.00,,,0.00,VWS V14.01,2013-09-02 08:50:00,
2013-09-02 04:55:00,72.4,70.6,29.84,SW,235,0.0,0.0,94,0.00,,,0.00,VWS V14.01,2013-09-02 08:55:00,
2013-09-02 05:00:00,72.3,70.5,29.84,SW,225,0.0,1.6,94,0.00,,,0.00,VWS V14.01,2013-09-02 09:00:00,
2013-09-02 05:05:00,72.2,70.4,29.84,SW,227,0.0,3.2,94,0.00,,,0.00,VWS V14.01,2013-09-02 09:05:00,
2013-09-02 05:10:00,72.0,70.2,29.84,SW,225,0.0,0.0,94,0.00,,,0.00,VWS V14.01,2013-09-02 09:10:00,
2013-09-02 05:15:00,71.9,70.1,29.84,WSW,241,0.0,0.0,94,0.00,,,0.00,VWS V14.01,2013-09-02 09:15:00,
2013-09-02 05:20:00,71.8,70.0,29.84,WSW,241,0.0,0.0,94,0.00,,,0.00,VWS V14.01,2013-09-02 09:20:00,
2013-09-02 05:25:00,71.6,69.8,29.84,WSW,241,0.0,0.0,94,0.00,,,0.00,VWS V14.01,2013-09-02 09:25:00,
2013-09-02 05:30:00,71.5,69.7,29.84,WSW,240,0.0,1.6,94,0.00,,,0.00,VWS V14.01,2013-09-02 09:30:00,
2013-09-02 05:35:00,71.4,69.9,29.84,SW,228,0.0,1.6,95,0.00,,,0.00,VWS V14.01,2013-09-02 09:35:00,
2013-09-02 05:40:00,71.3,69.8,29.84,SW,229,0.0,1.6,95,0.00,,,0.00,VWS V14.01,2013-09-02 09:40:00,
2013-09-02 05:45:00,71.2,69.7,29.84,SW,228,0.0,0.0,95,0.00,,,0.00,VWS V14.01,2013-09-02 09:45:00,
2013-09-02 05:50:00,71.1,69.6,29.84,SW,228,0.0,0.0,95,0.00,,,0.00,VWS V14.01,2013-09-02 09:50:00,
2013-09-02 05:55:00,71.0,69.5,29.84,SW,228,0.0,0.0,95,0.00,,,0.00,VWS V14.01,2013-09-02 09:55:00,
2013-09-02 06:00:00,71.0,69.5,29.84,South,189,1.6,3.2,95,0.00,,,0.00,VWS V14.01,2013-09-02 10:00:00,
2013-09-02 06:05:00,71.0,69.5,29.84,South,185,0.0,4.8,95,0.00,,,0.00,VWS V14.01,2013-09-02 10:05:00,
2013-09-02 06:10:00,70.9,69.4,29.84,SW,222,3.2,3.2,95,0.00,,,0.00,VWS V14.01,2013-09-02 10:10:00,
2013-09-02 06:15:00,71.0,69.5,29.84,SSW,203,0.0,0.0,95,0.00,,,0.00,VWS V14.01,2013-09-02 10:15:00,
2013-09-02 06:20:00,70.8,69.3,29.84,SW,215,1.6,3.2,95,0.00,,,0.00,VWS V14.01,2013-09-02 10:20:00,
2013-09-02 06:25:00,70.9,69.4,29.84,SSW,200,1.6,3.2,95,0.00,,,0.00,VWS V14.01,2013-09-02 10:25:00,
2013-09-02 06:30:00,70.9,69.7,29.84,SW,215,1.6,1.6,96,0.00,,,0.00,VWS V14.01,2013-09-02 10:30:00,
2013-09-02 06:35:00,70.7,69.2,29.85,WSW,241,1.6,1.6,95,0.00,,,0.00,VWS V14.01,2013-09-02 10:35:00,
2013-09-02 06:40:00,70.5,69.0,29.85,WSW,241,0.0,0.0,95,0.00,,,0.00,VWS V14.01,2013-09-02 10:40:00,
2013-09-02 06:45:00,70.3,68.8,29.85,WSW,241,0.0,0.0,95,0.00,,,0.00,VWS V14.01,2013-09-02 10:45:00,
2013-09-02 06:50:00,70.4,69.2,29.85,SW,231,0.0,1.6,96,0.00,,,0.00,VWS V14.01,2013-09-02 10:50:00,
2013-09-02 06:55:00,70.4,69.2,29.85,SW,228,0.0,1.6,96,0.00,,,0.00,VWS V14.01,2013-09-02 10:55:00,
2013-09-02 07:00:00,70.3,69.1,29.86,SW,228,0.0,0.0,96,0.00,,,0.00,VWS V14.01,2013-09-02 11:00:00,
2013-09-02 07:05:00,70.1,68.6,29.86,SW,228,0.0,0.0,95,0.00,,,0.00,VWS V14.01,2013-09-02 11:05:00,
2013-09-02 07:10:00,69.9,68.4,29.87,SW,228,0.0,0.0,95,0.00,,,0.00,VWS V14.01,2013-09-02 11:10:00,
2013-09-02 07:15:00,69.7,68.2,29.87,SW,228,0.0,0.0,95,0.00,,,0.00,VWS V14.01,2013-09-02 11:15:00,
2013-09-02 07:20:00,69.7,68.5,29.87,SW,229,0.0,0.0,96,0.00,,,0.00,VWS V14.01,2013-09-02 11:20:00,
2013-09-02 07:24:00,69.6,68.4,29.87,SW,228,0.0,0.0,96,0.00,,,0.00,VWS V14.01,2013-09-02 11:24:00,
2013-09-02 07:29:00,69.8,68.6,29.87,WSW,252,1.6,1.6,96,0.00,,,0.00,VWS V14.01,2013-09-02 11:29:00,
2013-09-02 07:34:00,70.2,69.0,29.87,SW,220,3.2,3.2,96,0.00,,,0.00,VWS V14.01,2013-09-02 11:34:00,
2013-09-02 07:39:00,70.7,69.5,29.88,SW,220,4.8,4.8,96,0.00,,,0.00,VWS V14.01,2013-09-02 11:39:00,
2013-09-02 07:44:00,70.9,69.7,29.88,WSW,251,1.6,6.4,96,0.00,,,0.00,VWS V14.01,2013-09-02 11:44:00,
2013-09-02 07:49:00,71.1,69.9,29.88,SW,231,4.8,12.8,96,0.00,,,0.00,VWS V14.01,2013-09-02 11:49:00,
2013-09-02 07:54:00,71.2,70.0,29.88,WSW,252,4.8,8.0,96,0.00,,,0.00,VWS V14.01,2013-09-02 11:54:00,
2013-09-02 07:59:00,71.3,70.1,29.88,WSW,257,4.8,4.8,96,0.00,,,0.00,VWS V14.01,2013-09-02 11:59:00,
2013-09-02 08:04:00,71.4,70.2,29.88,SW,232,3.2,9.6,96,0.00,,,0.00,VWS V14.01,2013-09-02 12:04:00,
2013-09-02 08:09:00,71.4,70.2,29.88,West,268,3.2,8.0,96,0.00,,,0.00,VWS V14.01,2013-09-02 12:09:00,
2013-09-02 08:14:00,71.4,70.2,29.88,West,261,8.0,8.0,96,0.00,,,0.00,VWS V14.01,2013-09-02 12:14:00,
2013-09-02 08:19:00,71.5,70.3,29.88,West,262,4.8,6.4,96,0.00,,,0.00,VWS V14.01,2013-09-02 12:19:00,
2013-09-02 08:24:00,71.5,70.3,29.89,WSW,248,3.2,3.2,96,0.00,,,0.00,VWS V14.01,2013-09-02 12:24:00,
2013-09-02 08:29:00,71.7,70.5,29.89,SW,224,1.6,3.2,96,0.00,,,0.00,VWS V14.01,2013-09-02 12:29:00,
2013-09-02 08:34:00,71.7,70.5,29.89,WSW,257,3.2,4.8,96,0.00,,,0.00,VWS V14.01,2013-09-02 12:34:00,
2013-09-02 08:39:00,71.8,70.6,29.89,WSW,241,3.2,4.8,96,0.00,,,0.00,VWS V14.01,2013-09-02 12:39:00,
2013-09-02 08:44:00,71.8,70.6,29.89,WSW,257,3.2,4.8,96,0.00,,,0.00,VWS V14.01,2013-09-02 12:44:00,
2013-09-02 08:49:00,72.0,70.8,29.89,WSW,238,3.2,6.4,96,0.00,,,0.00,VWS V14.01,2013-09-02 12:49:00,
2013-09-02 08:54:00,72.0,70.5,29.90,WSW,248,1.6,8.0,95,0.00,,,0.00,VWS V14.01,2013-09-02 12:54:00,
2013-09-02 08:59:00,72.2,70.7,29.90,SW,228,1.6,4.8,95,0.00,,,0.00,VWS V14.01,2013-09-02 12:59:00,
2013-09-02 09:04:00,72.4,70.9,29.90,WSW,250,4.8,9.6,95,0.00,,,0.00,VWS V14.01,2013-09-02 13:04:00,
2013-09-02 09:09:00,72.6,70.8,29.90,WSW,243,4.8,6.4,94,0.00,,,0.00,VWS V14.01,2013-09-02 13:09:00,
2013-09-02 09:14:00,72.8,70.7,29.90,West,262,1.6,6.4,93,0.00,,,0.00,VWS V14.01,2013-09-02 13:14:00,
2013-09-02 09:19:00,73.0,70.5,29.90,WSW,245,1.6,8.0,92,0.00,,,0.00,VWS V14.01,2013-09-02 13:19:00,
2013-09-02 09:24:00,73.3,70.8,29.90,WSW,246,6.4,6.4,92,0.00,,,0.00,VWS V14.01,2013-09-02 13:24:00,
2013-09-02 09:29:00,73.6,71.1,29.90,West,279,0.0,4.8,92,0.00,,,0.00,VWS V14.01,2013-09-02 13:29:00,
2013-09-02 09:34:00,73.9,70.8,29.90,WSW,248,3.2,6.4,90,0.00,,,0.00,VWS V14.01,2013-09-02 13:34:00,
2013-09-02 09:39:00,74.0,70.9,29.90,WSW,243,1.6,8.0,90,0.00,,,0.00,VWS V14.01,2013-09-02 13:39:00,
2013-09-02 09:44:00,74.4,71.3,29.90,SW,227,3.2,6.4,90,0.00,,,0.00,VWS V14.01,2013-09-02 13:44:00,
2013-09-02 09:49:00,74.8,71.3,29.90,SSW,208,6.4,6.4,89,0.00,,,0.00,VWS V14.01,2013-09-02 13:49:00,
2013-09-02 09:54:00,75.3,71.5,29.90,WSW,242,3.2,8.0,88,0.00,,,0.00,VWS V14.01,2013-09-02 13:54:00,
2013-09-02 09:59:00,75.8,71.7,29.90,WSW,241,4.8,9.6,87,0.00,,,0.00,VWS V14.01,2013-09-02 13:59:00,
2013-09-02 10:04:00,76.2,72.1,29.90,South,177,4.8,4.8,87,0.00,,,0.00,VWS V14.01,2013-09-02 14:04:00,
2013-09-02 10:09:00,76.6,71.8,29.91,SW,217,1.6,8.0,85,0.00,,,0.00,VWS V14.01,2013-09-02 14:09:00,
2013-09-02 10:14:00,76.8,71.6,29.91,WSW,239,0.0,6.4,84,0.00,,,0.00,VWS V14.01,2013-09-02 14:14:00,
2013-09-02 10:19:00,77.0,71.8,29.91,WSW,241,1.6,6.4,84,0.00,,,0.00,VWS V14.01,2013-09-02 14:19:00,
2013-09-02 10:24:00,77.5,72.3,29.90,SSW,212,4.8,8.0,84,0.00,,,0.00,VWS V14.01,2013-09-02 14:24:00,
2013-09-02 10:29:00,77.5,71.6,29.91,SW,214,3.2,4.8,82,0.00,,,0.00,VWS V14.01,2013-09-02 14:29:00,
2013-09-02 10:34:00,77.8,71.9,29.91,SW,215,1.6,4.8,82,0.00,,,0.00,VWS V14.01,2013-09-02 14:34:00,
2013-09-02 10:39:00,78.1,72.2,29.91,SW,221,1.6,8.0,82,0.00,,,0.00,VWS V14.01,2013-09-02 14:39:00,
2013-09-02 10:44:00,78.4,72.8,29.91,SW,221,1.6,1.6,83,0.00,,,0.00,VWS V14.01,2013-09-02 14:44:00,
2013-09-02 10:49:00,78.6,72.7,29.91,WSW,241,8.0,8.0,82,0.00,,,0.00,VWS V14.01,2013-09-02 14:49:00,
2013-09-02 10:54:00,78.8,72.5,29.91,SW,215,4.8,8.0,81,0.00,,,0.00,VWS V14.01,2013-09-02 14:54:00,
2013-09-02 10:59:00,79.0,72.7,29.91,WSW,245,4.8,6.4,81,0.00,,,0.00,VWS V14.01,2013-09-02 14:59:00,
2013-09-02 11:04:00,79.3,72.6,29.91,SW,225,1.6,6.4,80,0.00,,,0.00,VWS V14.01,2013-09-02 15:04:00,
2013-09-02 11:09:00,80.0,73.3,29.91,WSW,248,4.8,8.0,80,0.00,,,0.00,VWS V14.01,2013-09-02 15:09:00,
2013-09-02 11:14:00,80.1,73.0,29.91,SSW,205,6.4,9.6,79,0.00,,,0.00,VWS V14.01,2013-09-02 15:14:00,
2013-09-02 11:19:00,80.3,72.8,29.91,WNW,294,4.8,9.6,78,0.00,,,0.00,VWS V14.01,2013-09-02 15:19:00,
2013-09-02 11:24:00,81.1,73.6,29.91,SSW,205,3.2,3.2,78,0.00,,,0.00,VWS V14.01,2013-09-02 15:24:00,
2013-09-02 11:29:00,82.0,73.7,29.91,WSW,257,1.6,3.2,76,0.00,,,0.00,VWS V14.01,2013-09-02 15:29:00,
2013-09-02 11:34:00,82.5,73.8,29.91,WSW,238,1.6,6.4,75,0.00,,,0.00,VWS V14.01,2013-09-02 15:34:00,
2013-09-02 11:39:00,82.2,73.5,29.91,SSW,206,1.6,6.4,75,0.00,,,0.00,VWS V14.01,2013-09-02 15:39:00,
2013-09-02 11:44:00,81.4,73.1,29.91,SW,228,3.2,6.4,76,0.00,,,0.00,VWS V14.01,2013-09-02 15:44:00,
2013-09-02 11:49:00,81.8,73.5,29.90,SW,222,3.2,6.4,76,0.00,,,0.00,VWS V14.01,2013-09-02 15:49:00,
2013-09-02 11:54:00,82.2,73.9,29.90,SW,227,4.8,9.6,76,0.00,,,0.00,VWS V14.01,2013-09-02 15:54:00,
2013-09-02 11:59:00,82.4,74.1,29.90,SW,215,0.0,3.2,76,0.00,,,0.00,VWS V14.01,2013-09-02 15:59:00,
2013-09-02 12:04:00,83.2,74.1,29.90,SSE,156,3.2,4.8,74,0.00,,,0.00,VWS V14.01,2013-09-02 16:04:00,
2013-09-02 12:09:00,83.4,74.2,29.90,SW,218,3.2,8.0,74,0.00,,,0.00,VWS V14.01,2013-09-02 16:09:00,
2013-09-02 12:14:00,83.1,74.0,29.90,SW,220,6.4,12.8,74,0.00,,,0.00,VWS V14.01,2013-09-02 16:14:00,
2013-09-02 12:19:00,83.2,74.1,29.90,SW,225,4.8,6.4,74,0.00,,,0.00,VWS V14.01,2013-09-02 16:19:00,
2013-09-02 12:24:00,83.6,73.6,29.89,SW,234,8.0,12.8,72,0.00,,,0.00,VWS V14.01,2013-09-02 16:24:00,
2013-09-02 12:29:00,83.3,73.8,29.89,SW,234,8.0,11.2,73,0.00,,,0.00,VWS V14.01,2013-09-02 16:29:00,
2013-09-02 12:34:00,83.5,73.9,29.89,SE,137,0.0,9.6,73,0.00,,,0.00,VWS V14.01,2013-09-02 16:34:00,
2013-09-02 12:39:00,83.7,73.7,29.89,SW,227,6.4,9.6,72,0.00,,,0.00,VWS V14.01,2013-09-02 16:39:00,
2013-09-02 12:44:00,83.3,73.8,29.89,WSW,243,8.0,11.2,73,0.00,,,0.00,VWS V14.01,2013-09-02 16:44:00,
2013-09-02 12:49:00,83.1,74.0,29.89,SSE,152,6.4,11.2,74,0.00,,,0.00,VWS V14.01,2013-09-02 16:49:00,
2013-09-02 12:54:00,83.2,73.7,29.89,WSW,248,6.4,14.4,73,0.00,,,0.00,VWS V14.01,2013-09-02 16:54:00,
2013-09-02 12:59:00,83.5,74.3,29.89,WSW,250,8.0,11.2,74,0.00,,,0.00,VWS V14.01,2013-09-02 16:59:00,
2013-09-02 13:04:00,83.7,74.1,29.89,SW,234,3.2,11.2,73,0.00,,,0.00,VWS V14.01,2013-09-02 17:04:00,
2013-09-02 13:09:00,83.9,74.3,29.88,SSE,151,1.6,8.0,73,0.00,,,0.00,VWS V14.01,2013-09-02 17:09:00,
2013-09-02 13:14:00,83.7,74.1,29.88,SW,227,11.2,19.2,73,0.00,,,0.00,VWS V14.01,2013-09-02 17:14:00,
2013-09-02 13:18:00,83.3,73.8,29.88,WSW,257,3.2,16.0,73,0.00,,,0.00,VWS V14.01,2013-09-02 17:18:00,
2013-09-02 13:23:00,83.5,73.9,29.88,SW,234,6.4,8.0,73,0.00,,,0.00,VWS V14.01,2013-09-02 17:23:00,
2013-09-02 13:28:00,83.5,73.9,29.88,South,173,3.2,6.4,73,0.00,,,0.00,VWS V14.01,2013-09-02 17:28:00,
2013-09-02 13:33:00,84.3,74.7,29.88,West,268,1.6,14.4,73,0.00,,,0.00,VWS V14.01,2013-09-02 17:33:00,
2013-09-02 13:38:00,84.1,74.5,29.88,SSW,194,9.6,17.6,73,0.00,,,0.00,VWS V14.01,2013-09-02 17:38:00,
2013-09-02 13:43:00,84.0,73.6,29.88,WSW,246,8.0,14.4,71,0.00,,,0.00,VWS V14.01,2013-09-02 17:43:00,
2013-09-02 13:48:00,83.8,73.8,29.87,SW,215,1.6,4.8,72,0.00,,,0.00,VWS V14.01,2013-09-02 17:48:00,
2013-09-02 13:53:00,83.9,73.9,29.87,SW,233,6.4,6.4,72,0.00,,,0.00,VWS V14.01,2013-09-02 17:53:00,
2013-09-02 13:58:00,83.8,73.8,29.87,West,266,6.4,8.0,72,0.00,,,0.00,VWS V14.01,2013-09-02 17:58:00,
2013-09-02 14:03:00,84.0,73.6,29.87,SW,219,3.2,12.8,71,0.00,,,0.00,VWS V14.01,2013-09-02 18:03:00,
2013-09-02 14:08:00,84.3,74.3,29.86,West,266,6.4,8.0,72,0.00,,,0.00,VWS V14.01,2013-09-02 18:08:00,
2013-09-02 14:13:00,84.9,74.0,29.86,WSW,253,11.2,11.2,70,0.00,,,0.00,VWS V14.01,2013-09-02 18:13:00,
2013-09-02 14:18:00,85.2,73.9,29.86,West,266,11.2,14.4,69,0.00,,,0.00,VWS V14.01,2013-09-02 18:18:00,
2013-09-02 14:23:00,85.3,74.0,29.86,SW,234,6.4,9.6,69,0.00,,,0.00,VWS V14.01,2013-09-02 18:23:00,
2013-09-02 14:28:00,85.3,74.0,29.86,WSW,239,8.0,9.6,69,0.00,,,0.00,VWS V14.01,2013-09-02 18:28:00,
2013-09-02 14:33:00,85.5,73.7,29.86,West,269,6.4,11.2,68,0.00,,,0.00,VWS V14.01,2013-09-02 18:33:00,
2013-09-02 14:38:00,85.9,72.8,29.85,SW,215,8.0,14.4,65,0.00,,,0.00,VWS V14.01,2013-09-02 18:38:00,
2013-09-02 14:43:00,86.2,73.1,29.85,WSW,253,14.4,14.4,65,0.00,,,0.00,VWS V14.01,2013-09-02 18:43:00,
2013-09-02 14:48:00,86.0,74.2,29.85,West,272,9.6,12.8,68,0.00,,,0.00,VWS V14.01,2013-09-02 18:48:00,
2013-09-02 14:53:00,85.9,73.2,29.85,WSW,253,11.2,19.2,66,0.00,,,0.00,VWS V14.01,2013-09-02 18:53:00,
2013-09-02 14:58:00,85.7,73.9,29.85,WSW,252,8.0,11.2,68,0.00,,,0.00,VWS V14.01,2013-09-02 18:58:00,
2013-09-02 15:03:00,85.9,73.7,29.84,West,268,4.8,9.6,67,0.00,,,0.00,VWS V14.01,2013-09-02 19:03:00,
2013-09-02 15:08:00,86.0,73.3,29.84,West,260,8.0,11.2,66,0.00,,,0.00,VWS V14.01,2013-09-02 19:08:00,
2013-09-02 15:13:00,86.0,73.3,29.84,SW,218,6.4,11.2,66,0.00,,,0.00,VWS V14.01,2013-09-02 19:13:00,
2013-09-02 15:18:00,86.2,73.5,29.83,WSW,241,6.4,12.8,66,0.00,,,0.00,VWS V14.01,2013-09-02 19:18:00,
2013-09-02 15:23:00,86.4,72.8,29.83,West,267,11.2,14.4,64,0.00,,,0.00,VWS V14.01,2013-09-02 19:23:00,
2013-09-02 15:28:00,86.1,72.5,29.83,WNW,291,3.2,9.6,64,0.00,,,0.00,VWS V14.01,2013-09-02 19:28:00,
2013-09-02 15:33:00,85.8,72.7,29.83,West,263,6.4,11.2,65,0.00,,,0.00,VWS V14.01,2013-09-02 19:33:00,
2013-09-02 15:38:00,85.4,72.8,29.83,SW,221,8.0,9.6,66,0.00,,,0.00,VWS V14.01,2013-09-02 19:38:00,
2013-09-02 15:43:00,84.9,72.7,29.83,WSW,238,8.0,9.6,67,0.00,,,0.00,VWS V14.01,2013-09-02 19:43:00,
2013-09-02 15:48:00,84.8,72.6,29.83,WSW,238,3.2,9.6,67,0.00,,,0.00,VWS V14.01,2013-09-02 19:48:00,
2013-09-02 15:53:00,84.6,72.9,29.83,SW,227,3.2,9.6,68,0.00,,,0.00,VWS V14.01,2013-09-02 19:53:00,
2013-09-02 15:58:00,84.2,72.9,29.83,West,260,8.0,14.4,69,0.00,,,0.00,VWS V14.01,2013-09-02 19:58:00,
2013-09-02 16:03:00,83.9,72.7,29.83,WSW,243,6.4,9.6,69,0.00,,,0.00,VWS V14.01,2013-09-02 20:03:00,
2013-09-02 16:08:00,83.7,72.9,29.83,WSW,256,8.0,9.6,70,0.00,,,0.00,VWS V14.01,2013-09-02 20:08:00,
2013-09-02 16:13:00,83.4,72.6,29.84,WSW,249,8.0,9.6,70,0.00,,,0.00,VWS V14.01,2013-09-02 20:13:00,
2013-09-02 16:18:00,83.2,73.2,29.85,NE,39,4.8,12.8,72,0.00,,,0.00,VWS V14.01,2013-09-02 20:18:00,
2013-09-02 16:23:00,80.9,71.0,29.86,NE,36,27.2,27.2,72,0.00,,,0.00,VWS V14.01,2013-09-02 20:23:00,
2013-09-02 16:28:00,76.3,69.3,29.86,NNE,15,8.0,20.8,79,0.04,,,0.04,VWS V14.01,2013-09-02 20:28:00,
2013-09-02 16:33:00,73.3,68.9,29.86,NE,44,12.8,24.0,86,0.18,,,0.18,VWS V14.01,2013-09-02 20:33:00,
2013-09-02 16:38:00,71.9,68.5,29.86,NW,314,12.8,17.6,89,0.26,,,0.26,VWS V14.01,2013-09-02 20:38:00,
2013-09-02 16:43:00,71.7,68.6,29.85,NNW,342,6.4,11.2,90,0.26,,,0.26,VWS V14.01,2013-09-02 20:43:00,
2013-09-02 16:48:00,71.6,68.8,29.85,West,273,1.6,6.4,91,0.27,,,0.27,VWS V14.01,2013-09-02 20:48:00,
2013-09-02 16:53:00,71.7,69.3,29.85,WSW,241,0.0,1.6,92,0.27,,,0.27,VWS V14.01,2013-09-02 20:53:00,
2013-09-02 16:58:00,72.0,69.6,29.84,WSW,241,1.6,4.8,92,0.27,,,0.27,VWS V14.01,2013-09-02 20:58:00,
2013-09-02 17:03:00,72.8,70.3,29.83,SW,234,0.0,4.8,92,0.27,,,0.27,VWS V14.01,2013-09-02 21:03:00,
2013-09-02 17:08:00,74.0,71.2,29.83,WSW,248,3.2,3.2,91,0.27,,,0.27,VWS V14.01,2013-09-02 21:08:00,
2013-09-02 17:13:00,74.8,71.3,29.83,SSW,208,6.4,6.4,89,0.27,,,0.27,VWS V14.01,2013-09-02 21:13:00,
2013-09-02 17:18:00,75.4,71.6,29.83,SSW,193,3.2,3.2,88,0.27,,,0.27,VWS V14.01,2013-09-02 21:18:00,
2013-09-02 17:23:00,75.9,71.4,29.83,West,269,1.6,4.8,86,0.27,,,0.27,VWS V14.01,2013-09-02 21:23:00,
2013-09-02 17:28:00,76.2,71.7,29.83,SW,215,4.8,4.8,86,0.24,,,0.27,VWS V14.01,2013-09-02 21:28:00,
2013-09-02 17:33:00,76.6,71.8,29.83,SW,228,4.8,4.8,85,0.12,,,0.27,VWS V14.01,2013-09-02 21:33:00,
2013-09-02 17:38:00,77.0,71.1,29.83,SW,221,4.8,8.0,82,0.01,,,0.27,VWS V14.01,2013-09-02 21:38:00,
2013-09-02 17:44:00,77.3,71.0,29.83,SW,221,8.0,12.8,81,0.01,,,0.27,VWS V14.01,2013-09-02 21:44:00,
2013-09-02 17:49:00,77.9,70.9,29.83,SW,232,4.8,8.0,79,0.00,,,0.27,VWS V14.01,2013-09-02 21:49:00,
2013-09-02 17:54:00,77.9,70.5,29.83,SW,215,4.8,9.6,78,0.00,,,0.27,VWS V14.01,2013-09-02 21:54:00,
2013-09-02 17:59:00,78.0,71.0,29.83,WSW,256,8.0,9.6,79,0.00,,,0.27,VWS V14.01,2013-09-02 21:59:00,
2013-09-02 18:04:00,77.9,69.3,29.83,West,260,6.4,8.0,75,0.00,,,0.27,VWS V14.01,2013-09-02 22:04:00,
2013-09-02 18:09:00,77.8,70.0,29.83,WSW,240,4.8,6.4,77,0.00,,,0.27,VWS V14.01,2013-09-02 22:09:00,
2013-09-02 18:14:00,77.8,69.6,29.83,SSW,212,9.6,11.2,76,0.00,,,0.27,VWS V14.01,2013-09-02 22:14:00,
2013-09-02 18:19:00,78.1,69.1,29.82,SW,228,3.2,14.4,74,0.00,,,0.27,VWS V14.01,2013-09-02 22:19:00,
2013-09-02 18:24:00,78.7,70.5,29.82,WSW,255,9.6,9.6,76,0.00,,,0.27,VWS V14.01,2013-09-02 22:24:00,
2013-09-02 18:29:00,79.4,70.0,29.82,WSW,248,6.4,9.6,73,0.00,,,0.27,VWS V14.01,2013-09-02 22:29:00,
2013-09-02 18:34:00,79.8,70.4,29.82,West,267,8.0,8.0,73,0.00,,,0.27,VWS V14.01,2013-09-02 22:34:00,
2013-09-02 18:39:00,80.3,70.9,29.83,NW,314,1.6,3.2,73,0.00,,,0.27,VWS V14.01,2013-09-02 22:39:00,
2013-09-02 18:44:00,80.4,71.0,29.84,NE,44,1.6,6.4,73,0.00,,,0.27,VWS V14.01,2013-09-02 22:44:00,
2013-09-02 18:49:00,79.7,71.1,29.84,NE,42,1.6,4.8,75,0.00,,,0.27,VWS V14.01,2013-09-02 22:49:00,
2013-09-02 18:54:00,79.1,70.5,29.83,NNE,13,0.0,3.2,75,0.00,,,0.27,VWS V14.01,2013-09-02 22:54:00,
2013-09-02 18:59:00,79.0,70.4,29.83,North,2,3.2,4.8,75,0.00,,,0.27,VWS V14.01,2013-09-02 22:59:00,
2013-09-02 19:04:00,78.8,70.6,29.83,NE,46,3.2,6.4,76,0.00,,,0.27,VWS V14.01,2013-09-02 23:04:00,
2013-09-02 19:09:00,78.6,70.4,29.84,NNE,16,4.8,6.4,76,0.00,,,0.27,VWS V14.01,2013-09-02 23:09:00,
2013-09-02 19:14:00,78.6,70.8,29.83,NNE,33,0.0,3.2,77,0.00,,,0.27,VWS V14.01,2013-09-02 23:14:00,
2013-09-02 19:19:00,79.1,70.5,29.83,NNE,23,0.0,0.0,75,0.00,,,0.27,VWS V14.01,2013-09-02 23:19:00,
2013-09-02 19:24:00,79.9,70.5,29.83,WNW,302,0.0,3.2,73,0.00,,,0.27,VWS V14.01,2013-09-02 23:24:00,
2013-09-02 19:29:00,80.3,70.9,29.84,WSW,246,1.6,3.2,73,0.00,,,0.27,VWS V14.01,2013-09-02 23:29:00,
2013-09-02 19:34:00,80.0,71.0,29.84,West,266,0.0,1.6,74,0.00,,,0.27,VWS V14.01,2013-09-02 23:34:00,
2013-09-02 19:39:00,79.9,70.9,29.84,NW,309,0.0,1.6,74,0.00,,,0.27,VWS V14.01,2013-09-02 23:39:00,
2013-09-02 19:44:00,79.7,71.1,29.85,NW,310,0.0,0.0,75,0.00,,,0.27,VWS V14.01,2013-09-02 23:44:00,
2013-09-02 19:49:00,79.3,70.7,29.84,NW,309,0.0,0.0,75,0.00,,,0.27,VWS V14.01,2013-09-02 23:49:00,
2013-09-02 19:54:00,78.7,70.9,29.84,NW,310,0.0,0.0,77,0.00,,,0.27,VWS V14.01,2013-09-02 23:54:00,
2013-09-02 19:59:00,78.3,71.3,29.85,NW,309,0.0,0.0,79,0.00,,,0.27,VWS V14.01,2013-09-02 23:59:00,
2013-09-02 20:04:00,77.6,70.6,29.85,NW,310,0.0,0.0,79,0.00,,,0.27,VWS V14.01,2013-09-03 00:04:00,
2013-09-02 20:09:00,77.3,71.0,29.85,NW,309,0.0,0.0,81,0.00,,,0.27,VWS V14.01,2013-09-03 00:09:00,
2013-09-02 20:14:00,76.8,71.2,29.85,NW,310,0.0,0.0,83,0.00,,,0.27,VWS V14.01,2013-09-03 00:14:00,
2013-09-02 20:19:00,76.3,71.1,29.85,NW,310,0.0,0.0,84,0.00,,,0.27,VWS V14.01,2013-09-03 00:19:00,
2013-09-02 20:24:00,75.9,70.7,29.85,NW,310,1.6,1.6,84,0.00,,,0.27,VWS V14.01,2013-09-03 00:24:00,
2013-09-02 20:29:00,75.7,70.5,29.86,NW,309,0.0,1.6,84,0.00,,,0.27,VWS V14.01,2013-09-03 00:29:00,
2013-09-02 20:34:00,75.8,70.6,29.86,NW,310,0.0,0.0,84,0.00,,,0.27,VWS V14.01,2013-09-03 00:34:00,
2013-09-02 20:39:00,75.6,71.1,29.86,NE,54,0.0,1.6,86,0.00,,,0.27,VWS V14.01,2013-09-03 00:39:00,
2013-09-02 20:44:00,75.4,71.3,29.86,NE,54,0.0,0.0,87,0.00,,,0.27,VWS V14.01,2013-09-03 00:44:00,
2013-09-02 20:49:00,75.3,71.2,29.86,NE,54,0.0,0.0,87,0.00,,,0.27,VWS V14.01,2013-09-03 00:49:00,
2013-09-02 20:54:00,75.3,71.5,29.86,NE,54,0.0,0.0,88,0.00,,,0.27,VWS V14.01,2013-09-03 00:54:00,
2013-09-02 20:59:00,75.2,71.1,29.86,NE,54,0.0,0.0,87,0.00,,,0.27,VWS V14.01,2013-09-03 00:59:00,
2013-09-02 21:04:00,75.3,71.2,29.86,NE,54,0.0,1.6,87,0.00,,,0.27,VWS V14.01,2013-09-03 01:04:00,
2013-09-02 21:09:00,75.2,71.4,29.86,NE,54,0.0,0.0,88,0.00,,,0.27,VWS V14.01,2013-09-03 01:09:00,
2013-09-02 21:14:00,75.2,71.7,29.86,NE,54,0.0,0.0,89,0.00,,,0.27,VWS V14.01,2013-09-03 01:14:00,
2013-09-02 21:19:00,75.0,71.2,29.87,NE,54,0.0,0.0,88,0.00,,,0.27,VWS V14.01,2013-09-03 01:19:00,
2013-09-02 21:24:00,74.7,71.2,29.87,NE,54,0.0,0.0,89,0.00,,,0.27,VWS V14.01,2013-09-03 01:24:00,
2013-09-02 21:29:00,74.5,71.1,29.87,NE,54,0.0,0.0,89,0.00,,,0.27,VWS V14.01,2013-09-03 01:29:00,
2013-09-02 21:34:00,74.4,71.3,29.86,NE,54,0.0,0.0,90,0.00,,,0.27,VWS V14.01,2013-09-03 01:34:00,
2013-09-02 21:39:00,74.4,71.3,29.87,WSW,241,1.6,3.2,90,0.00,,,0.27,VWS V14.01,2013-09-03 01:39:00,
2013-09-02 21:44:00,74.3,71.2,29.86,SW,235,0.0,1.6,90,0.00,,,0.27,VWS V14.01,2013-09-03 01:44:00,
2013-09-02 21:49:00,74.4,71.3,29.86,SW,235,0.0,0.0,90,0.00,,,0.27,VWS V14.01,2013-09-03 01:49:00,
2013-09-02 21:54:00,74.3,71.2,29.86,SW,235,0.0,0.0,90,0.00,,,0.27,VWS V14.01,2013-09-03 01:54:00,
2013-09-02 22:00:00,74.3,71.2,29.87,SW,234,3.2,3.2,90,0.00,,,0.27,VWS V14.01,2013-09-03 02:00:00,
2013-09-02 22:05:00,74.5,71.1,29.86,SW,222,3.2,8.0,89,0.00,,,0.27,VWS V14.01,2013-09-03 02:05:00,
2013-09-02 22:10:00,74.5,71.1,29.86,WSW,246,3.2,4.8,89,0.00,,,0.27,VWS V14.01,2013-09-03 02:10:00,
2013-09-02 22:15:00,74.5,70.7,29.86,WNW,284,1.6,1.6,88,0.00,,,0.27,VWS V14.01,2013-09-03 02:15:00,
2013-09-02 22:19:00,74.4,70.6,29.86,WNW,288,0.0,1.6,88,0.00,,,0.27,VWS V14.01,2013-09-03 02:19:00,
2013-09-02 22:24:00,74.0,70.6,29.86,WNW,288,0.0,0.0,89,0.00,,,0.27,VWS V14.01,2013-09-03 02:24:00,
2013-09-02 22:29:00,73.7,70.6,29.87,WNW,288,0.0,0.0,90,0.00,,,0.27,VWS V14.01,2013-09-03 02:29:00,
2013-09-02 22:34:00,73.4,70.3,29.87,WNW,288,0.0,0.0,90,0.00,,,0.27,VWS V14.01,2013-09-03 02:34:00,
2013-09-02 22:39:00,73.1,70.3,29.87,WNW,288,0.0,0.0,91,0.00,,,0.27,VWS V14.01,2013-09-03 02:39:00,
2013-09-02 22:44:00,72.8,70.0,29.87,WNW,288,0.0,0.0,91,0.00,,,0.27,VWS V14.01,2013-09-03 02:44:00,
2013-09-02 22:49:00,72.6,70.2,29.87,WNW,288,0.0,0.0,92,0.00,,,0.27,VWS V14.01,2013-09-03 02:49:00,
2013-09-02 22:54:00,72.3,69.8,29.87,WNW,288,0.0,0.0,92,0.00,,,0.27,VWS V14.01,2013-09-03 02:54:00,
2013-09-02 22:59:00,71.9,69.4,29.88,WNW,288,0.0,0.0,92,0.00,,,0.27,VWS V14.01,2013-09-03 02:59:00,
2013-09-02 23:04:00,71.6,69.2,29.88,WNW,288,0.0,0.0,92,0.00,,,0.27,VWS V14.01,2013-09-03 03:04:00,
2013-09-02 23:09:00,71.6,69.5,29.88,WNW,288,0.0,0.0,93,0.00,,,0.27,VWS V14.01,2013-09-03 03:09:00,
2013-09-02 23:14:00,71.5,69.4,29.88,WNW,288,0.0,0.0,93,0.00,,,0.27,VWS V14.01,2013-09-03 03:14:00,
2013-09-02 23:19:00,71.5,69.7,29.88,NNW,348,0.0,1.6,94,0.00,,,0.27,VWS V14.01,2013-09-03 03:19:00,
2013-09-02 23:24:00,71.5,69.7,29.88,NNW,345,0.0,3.2,94,0.00,,,0.27,VWS V14.01,2013-09-03 03:24:00,
2013-09-02 23:29:00,71.6,69.8,29.88,NNW,345,0.0,0.0,94,0.00,,,0.27,VWS V14.01,2013-09-03 03:29:00,
2013-09-02 23:34:00,71.5,69.7,29.88,NNW,345,0.0,1.6,94,0.00,,,0.27,VWS V14.01,2013-09-03 03:34:00,
2013-09-02 23:39:00,71.4,69.6,29.88,North,358,0.0,3.2,94,0.00,,,0.27,VWS V14.01,2013-09-03 03:39:00,
2013-09-02 23:44:00,71.4,69.6,29.88,NNE,20,0.0,1.6,94,0.00,,,0.27,VWS V14.01,2013-09-03 03:44:00,
2013-09-02 23:49:00,71.4,69.6,29.88,North,1,0.0,3.2,94,0.00,,,0.27,VWS V14.01,2013-09-03 03:49:00,
2013-09-02 23:54:00,71.3,69.5,29.89,North,355,0.0,1.6,94,0.00,,,0.27,VWS V14.01,2013-09-03 03:54:00,
2013-09-02 23:59:00,71.2,69.4,29.89,North,358,1.6,4.8,94,0.00,,,0.27,VWS V14.01,2013-09-03 03:59:00,